Weather in Andryushkino

Russia / Sakha (Yakutia) Republic     69°10′21″N   154°26′41″E
temp.,
°C
wind,
m/s
gust,
m/s
humid.,
%
clouds,
%
prec.,
mm/h
press.,
hPa
HPBL,
m
15 april, thu
thu1523:00−22e459761 0.0 102039
02:00−23e459811 0.0 101949
05:00−23ene479928 0.0 101862
08:00−20ene489735 0.0 1017122
11:00−16ene47915 0.0 1015190
14:00−14ene47895 0.0 1013227
17:00−15ene47915 0.0 1012153
20:00−20ene34985 0.0 101137
16 april, fri
fri1623:00−21ene459998 0.0 100957
02:00−21ne3497100 0.0 100755
05:00−20ne3496100 0.0 100662
08:00−18ne2394100 0.0 100580
11:00−15n219183 0.0 1005127
14:00−13wnw118873 0.0 1004193
17:00−14wnw129268 0.0 100440
20:00−16sw0096100 0.0 10059
17 april, sat
sat1723:00−18ssw1198100 0.0 10049
02:00−18sw22100100 0.0 100421
05:00−20ssw33100100 0.1 100431
08:00−18ssw349820 0.0 100459
11:00−12s489494 0.0 1004303
14:00−8s598570 0.0 1003649
17:00−8sse59865 0.0 1003238
20:00−10sse511905 0.0 1002149
18 april, sun
sun1823:00−12se511905 0.0 1001133
02:00−13se511885 0.0 1000130
05:00−13se51188100 0.0 999142
08:00−9se5128667 0.0 998196
11:00−6se61185100 0.0 998312
14:00−3sse7128499 0.0 997393
17:00−1s51084100 0.0 998352
20:00−1s3692100 0.0 1000112
19 april, mon
mon1923:00−2ssw3495100 0.0 100196
02:00−5w2296100 0.0 100234
05:00−5nnw3696100 0.1 1004129
08:00−6nnw4792100 0.0 1007214
11:00−5nw4690100 0.0 1010256
14:00−6wnw5889100 0.0 1014409
17:00−9wnw410855 0.0 1017257
20:00−15w339411 0.0 102120